TimeCDT,TemperatureF,Dew PointF,Humidity,Sea Level PressureIn,VisibilityMPH,Wind Direction,Wind SpeedMPH,Gust SpeedMPH,PrecipitationIn,Events,Conditions,WindDirDegrees,DateUTC
12:53 AM,52.0,51.1,97,30.03,8.0,Calm,Calm,-,N/A,,Clear,0,2012-10-15 05:53:00
1:53 AM,51.1,50.0,96,30.04,8.0,Calm,Calm,-,N/A,,Clear,0,2012-10-15 06:53:00
2:53 AM,50.0,48.9,96,30.03,7.0,Calm,Calm,-,N/A,,Clear,0,2012-10-15 07:53:00
3:53 AM,48.9,48.0,97,30.03,8.0,Calm,Calm,-,N/A,,Clear,0,2012-10-15 08:53:00
4:53 AM,48.9,48.0,97,30.02,6.0,Calm,Calm,-,N/A,,Clear,0,2012-10-15 09:53:00
5:53 AM,48.0,46.9,96,30.03,8.0,Calm,Calm,-,N/A,,Clear,0,2012-10-15 10:53:00
6:53 AM,46.9,46.0,97,30.05,7.0,Calm,Calm,-,N/A,,Clear,0,2012-10-15 11:53:00
7:53 AM,46.9,46.0,97,30.06,7.0,Calm,Calm,-,N/A,,Clear,0,2012-10-15 12:53:00
8:53 AM,52.0,51.1,97,30.07,10.0,Calm,Calm,-,N/A,,Clear,0,2012-10-15 13:53:00
9:53 AM,62.1,55.9,80,30.07,10.0,Calm,Calm,-,N/A,,Clear,0,2012-10-15 14:53:00
10:53 AM,70.0,54.0,57,30.06,10.0,Calm,Calm,-,N/A,,Clear,0,2012-10-15 15:53:00
11:53 AM,73.9,48.9,41,30.05,10.0,Calm,Calm,-,N/A,,Clear,0,2012-10-15 16:53:00
12:53 PM,77.0,45.0,32,30.04,10.0,Calm,Calm,-,N/A,,Clear,0,2012-10-15 17:53:00
1:53 PM,78.1,43.0,29,30.01,10.0,Calm,Calm,-,N/A,,Clear,0,2012-10-15 18:53:00
2:53 PM,80.1,44.1,28,29.98,10.0,Calm,Calm,-,N/A,,Clear,0,2012-10-15 19:53:00
3:53 PM,81.0,44.1,27,29.95,10.0,Calm,Calm,-,N/A,,Clear,0,2012-10-15 20:53:00
4:53 PM,79.0,46.0,31,29.94,10.0,Calm,Calm,-,N/A,,Clear,0,2012-10-15 21:53:00
5:53 PM,73.0,51.1,46,29.94,10.0,Calm,Calm,-,N/A,,Clear,0,2012-10-15 22:53:00
6:53 PM,64.9,54.0,68,29.95,10.0,Calm,Calm,-,N/A,,Clear,0,2012-10-15 23:53:00
7:53 PM,63.0,52.0,67,29.97,10.0,Calm,Calm,-,N/A,,Clear,0,2012-10-16 00:53:00
8:53 PM,59.0,51.1,75,29.97,10.0,Calm,Calm,-,N/A,,Clear,0,2012-10-16 01:53:00
9:53 PM,57.0,52.0,83,29.97,10.0,Calm,Calm,-,N/A,,Clear,0,2012-10-16 02:53:00
10:53 PM,55.0,52.0,89,29.97,10.0,Calm,Calm,-,N/A,,Clear,0,2012-10-16 03:53:00
11:53 PM,55.9,52.0,87,29.96,10.0,Calm,Calm,-,N/A,,Clear,0,2012-10-16 04:53:00